Voltar ao catálogo

CZ-6A DEB

AtivoSSO
NORAD 54515·DEBRIS·🇨🇳 China

Lançado Nov 11, 2022 de Taiyuan Satellite Launch Center

Loading…

Próximas Passagens (próximas 24 horas)

TLE

AtualizadoSource: Space-Track

Época: Sep 14, 2026, 19:54 UTC

1 54515U 22151JT  26257.82927453  .00000257  00000-0  92246-4 0  9994
2 54515  98.5574 282.1389 0119335  93.6850 267.7992 14.38013625201206

Acompanhe CZ-6A DEB em tempo real com AllMySat

Download on the App Store